Time,TemperatureF,DewpointF,PressureIn,WindDirection,WindDirectionDegrees,WindSpeedMPH,WindSpeedGustMPH,Humidity,HourlyPrecipIn,Conditions,Clouds,dailyrainin,SolarRadiationWatts/m^2,SoftwareType,DateUTC
2013-09-22 00:00:00,60.1,58.7,30.18,SW,227,13.8,13.8,95,0.00,BKN,,0.00,0.0,WeatherDisplay:10.37,2013-09-21 23:00:00,
2013-09-22 00:05:00,60.0,58.6,30.18,NW,315,16.1,16.1,95,0.00,BKN,,0.00,0.0,WeatherDisplay:10.37,2013-09-21 23:05:00,
2013-09-22 00:10:00,60.1,58.7,30.18,SW,219,13.8,13.8,95,0.00,BKN,,0.00,0.0,WeatherDisplay:10.37,2013-09-21 23:10:00,
2013-09-22 00:15:00,60.1,58.7,30.18,SW,217,15.0,15.0,95,0.00,BKN,,0.00,0.0,WeatherDisplay:10.37,2013-09-21 23:15:00,
2013-09-22 00:20:00,60.1,58.7,30.18,WSW,248,16.1,16.1,95,0.00,BKN,,0.00,0.0,WeatherDisplay:10.37,2013-09-21 23:20:00,
2013-09-22 00:25:00,60.1,58.7,30.18,South,188,17.3,17.3,95,0.00,BKN,,0.00,0.0,WeatherDisplay:10.37,2013-09-21 23:25:00,
2013-09-22 00:30:00,60.1,58.7,30.18,SSW,200,11.5,11.5,95,0.00,BKN,,0.00,0.0,WeatherDisplay:10.37,2013-09-21 23:30:00,
2013-09-22 00:35:00,60.0,58.6,30.18,SW,226,10.4,10.4,95,0.00,BKN,,0.00,0.0,WeatherDisplay:10.37,2013-09-21 23:35:00,
2013-09-22 00:40:00,60.0,58.6,30.18,SW,236,11.5,11.5,95,0.00,BKN,,0.00,0.0,WeatherDisplay:10.37,2013-09-21 23:40:00,
2013-09-22 00:45:00,60.0,58.6,30.18,ESE,114,11.5,11.5,95,0.00,BKN,,0.00,0.0,WeatherDisplay:10.37,2013-09-21 23:45:00,
2013-09-22 00:50:00,60.0,58.6,30.18,SW,233,16.1,16.1,95,0.00,BKN,,0.00,0.0,WeatherDisplay:10.37,2013-09-21 23:50:00,
2013-09-22 00:55:00,60.0,58.6,30.18,SSW,195,10.4,10.4,95,0.00,BKN,,0.00,0.0,WeatherDisplay:10.37,2013-09-21 23:55:00,
2013-09-22 01:00:00,60.1,58.7,30.18,WSW,240,9.2,9.2,95,0.00,BKN,,0.00,0.0,WeatherDisplay:10.37,2013-09-22 00:00:00,
2013-09-22 01:05:00,60.1,58.7,30.18,SW,224,11.5,11.5,95,0.00,BKN,,0.00,0.0,WeatherDisplay:10.37,2013-09-22 00:05:00,
2013-09-22 01:10:00,60.2,58.8,30.18,South,185,12.7,12.7,95,0.00,BKN,,0.00,0.0,WeatherDisplay:10.37,2013-09-22 00:10:00,
2013-09-22 01:15:00,60.3,58.6,30.18,WSW,240,11.5,11.5,94,0.00,BKN,,0.00,0.0,WeatherDisplay:10.37,2013-09-22 00:15:00,
2013-09-22 01:20:00,60.3,58.6,30.19,WSW,243,11.5,11.5,94,0.00,BKN,,0.00,0.0,WeatherDisplay:10.37,2013-09-22 00:20:00,
2013-09-22 01:25:00,60.3,58.6,30.19,West,259,6.9,7.1,94,0.00,BKN,,0.00,0.0,WeatherDisplay:10.37,2013-09-22 00:25:00,
2013-09-22 01:30:00,60.3,58.6,30.19,South,183,11.5,11.5,94,0.00,BKN,,0.00,0.0,WeatherDisplay:10.37,2013-09-22 00:30:00,
2013-09-22 01:35:00,60.4,58.7,30.19,SSW,212,10.4,10.4,94,0.00,BKN,,0.00,0.0,WeatherDisplay:10.37,2013-09-22 00:35:00,
2013-09-22 01:40:00,60.4,58.7,30.19,WSW,249,12.7,12.7,94,0.00,BKN,,0.00,0.0,WeatherDisplay:10.37,2013-09-22 00:40:00,
2013-09-22 01:45:00,60.4,58.7,30.19,SW,233,16.1,16.1,94,0.00,BKN,,0.00,0.0,WeatherDisplay:10.37,2013-09-22 00:45:00,
2013-09-22 01:50:00,60.3,58.6,30.19,WSW,253,11.5,11.5,94,0.00,BKN,,0.00,0.0,WeatherDisplay:10.37,2013-09-22 00:50:00,
2013-09-22 01:55:00,60.3,58.6,30.19,West,259,12.0,12.0,94,0.00,BKN,,0.00,0.0,WeatherDisplay:10.37,2013-09-22 00:55:00,
2013-09-22 02:00:00,60.3,58.6,30.19,SW,229,14.0,14.0,94,0.00,BKN,,0.00,0.0,WeatherDisplay:10.37,2013-09-22 01:00:00,
2013-09-22 02:05:00,60.1,58.4,30.19,WSW,254,18.4,18.4,94,0.00,BKN,,0.00,0.0,WeatherDisplay:10.37,2013-09-22 01:05:00,
2013-09-22 02:10:00,60.1,58.4,30.20,SW,226,8.0,8.0,94,0.00,BKN,,0.00,0.0,WeatherDisplay:10.37,2013-09-22 01:10:00,
2013-09-22 02:16:00,60.1,58.4,30.20,WSW,245,11.5,11.5,94,0.00,BKN,,0.00,0.0,WeatherDisplay:10.37,2013-09-22 01:16:00,
2013-09-22 02:22:00,60.0,58.3,30.20,WSW,242,11.5,11.5,94,0.00,BKN,,0.00,0.0,WeatherDisplay:10.37,2013-09-22 01:22:00,
2013-09-22 02:27:00,59.9,58.5,30.20,WSW,239,11.5,11.5,95,0.00,BKN,,0.00,0.0,WeatherDisplay:10.37,2013-09-22 01:27:00,
2013-09-22 02:32:00,59.8,58.4,30.20,WSW,246,11.5,11.5,95,0.00,BKN,,0.00,0.0,WeatherDisplay:10.37,2013-09-22 01:32:00,
2013-09-22 02:37:00,59.7,58.3,30.20,West,271,7.0,7.0,95,0.00,BKN,,0.00,0.0,WeatherDisplay:10.37,2013-09-22 01:37:00,
2013-09-22 02:42:00,59.6,58.2,30.20,SW,225,4.6,4.6,95,0.00,BKN,,0.00,0.0,WeatherDisplay:10.37,2013-09-22 01:42:00,
2013-09-22 02:47:00,59.6,58.2,30.20,SW,231,9.2,9.2,95,0.00,BKN,,0.00,0.0,WeatherDisplay:10.37,2013-09-22 01:47:00,
2013-09-22 02:52:00,59.5,58.1,30.20,SW,232,10.4,10.4,95,0.00,BKN,,0.00,0.0,WeatherDisplay:10.37,2013-09-22 01:52:00,
2013-09-22 02:57:00,59.6,58.2,30.20,NW,307,3.5,3.5,95,0.00,BKN,,0.00,0.0,WeatherDisplay:10.37,2013-09-22 01:57:00,
2013-09-22 03:02:00,59.5,58.1,30.20,SW,228,9.0,9.0,95,0.00,BKN,,0.00,0.0,WeatherDisplay:10.37,2013-09-22 02:02:00,
2013-09-22 03:07:00,59.6,58.2,30.20,West,259,12.7,12.7,95,0.00,BKN,,0.00,0.0,WeatherDisplay:10.37,2013-09-22 02:07:00,
2013-09-22 03:12:00,59.6,58.2,30.20,WSW,242,10.4,10.4,95,0.00,BKN,,0.00,0.0,WeatherDisplay:10.37,2013-09-22 02:12:00,
2013-09-22 03:17:00,59.6,58.2,30.20,SW,214,11.5,11.5,95,0.00,BKN,,0.00,0.0,WeatherDisplay:10.37,2013-09-22 02:17:00,
2013-09-22 03:22:00,59.6,58.2,30.20,SW,225,10.4,10.4,95,0.00,BKN,,0.00,0.0,WeatherDisplay:10.37,2013-09-22 02:22:00,
2013-09-22 03:27:00,59.6,58.2,30.20,WSW,238,11.5,11.5,95,0.00,BKN,,0.00,0.0,WeatherDisplay:10.37,2013-09-22 02:27:00,
2013-09-22 03:32:00,59.6,58.2,30.20,SW,218,8.1,8.1,95,0.00,BKN,,0.00,0.0,WeatherDisplay:10.37,2013-09-22 02:32:00,
2013-09-22 03:37:00,59.6,58.2,30.20,WSW,238,11.0,11.0,95,0.00,BKN,,0.00,0.0,WeatherDisplay:10.37,2013-09-22 02:37:00,
2013-09-22 03:42:00,59.7,58.3,30.20,WSW,237,9.2,9.2,95,0.00,BKN,,0.00,0.0,WeatherDisplay:10.37,2013-09-22 02:42:00,
2013-09-22 03:47:00,59.7,58.0,30.20,WSW,243,8.1,8.1,94,0.00,BKN,,0.00,0.0,WeatherDisplay:10.37,2013-09-22 02:47:00,
2013-09-22 03:52:00,59.8,58.1,30.20,SW,231,3.5,3.5,94,0.00,BKN,,0.00,0.0,WeatherDisplay:10.37,2013-09-22 02:52:00,
2013-09-22 03:57:00,59.9,58.2,30.20,WSW,246,8.1,8.1,94,0.00,BKN,,0.00,0.0,WeatherDisplay:10.37,2013-09-22 02:57:00,
2013-09-22 04:02:00,59.9,58.2,30.20,SW,221,7.0,7.0,94,0.00,BKN,,0.00,0.0,WeatherDisplay:10.37,2013-09-22 03:02:00,
2013-09-22 04:07:00,60.1,58.4,30.20,SW,218,5.8,5.8,94,0.00,BKN,,0.00,0.0,WeatherDisplay:10.37,2013-09-22 03:07:00,
2013-09-22 04:12:00,60.1,58.4,30.20,SW,236,6.9,6.9,94,0.00,BKN,,0.00,0.0,WeatherDisplay:10.37,2013-09-22 03:12:00,
2013-09-22 04:17:00,60.1,58.4,30.20,SW,216,6.9,6.9,94,0.00,BKN,,0.00,0.0,WeatherDisplay:10.37,2013-09-22 03:17:00,
2013-09-22 04:22:00,60.1,58.4,30.20,SW,226,9.2,9.2,94,0.00,BKN,,0.00,0.0,WeatherDisplay:10.37,2013-09-22 03:22:00,
2013-09-22 04:27:00,60.1,58.4,30.20,SW,234,6.9,6.9,94,0.00,BKN,,0.00,0.0,WeatherDisplay:10.37,2013-09-22 03:27:00,
2013-09-22 04:32:00,60.0,58.3,30.20,SW,214,8.1,8.1,94,0.00,BKN,,0.00,0.0,WeatherDisplay:10.37,2013-09-22 03:32:00,
2013-09-22 04:37:00,60.0,58.6,30.20,WSW,248,8.1,8.1,95,0.00,BKN,,0.00,0.0,WeatherDisplay:10.37,2013-09-22 03:37:00,
2013-09-22 04:43:00,60.0,58.6,30.19,SSW,207,11.5,11.5,95,0.00,BKN,,0.00,0.0,WeatherDisplay:10.37,2013-09-22 03:43:00,
2013-09-22 04:48:00,60.0,58.6,30.20,South,181,12.7,12.7,95,0.00,BKN,,0.00,0.0,WeatherDisplay:10.37,2013-09-22 03:48:00,
2013-09-22 04:53:00,60.0,58.3,30.19,WSW,250,10.4,10.4,94,0.00,BKN,,0.00,0.0,WeatherDisplay:10.37,2013-09-22 03:53:00,
2013-09-22 04:58:00,60.0,58.3,30.20,SE,134,11.5,11.5,94,0.00,BKN,,0.00,0.0,WeatherDisplay:10.37,2013-09-22 03:58:00,
2013-09-22 05:01:00,59.9,58.2,30.20,WSW,253,9.2,9.2,94,0.00,BKN,,0.00,0.0,WeatherDisplay:10.37,2013-09-22 04:01:00,
2013-09-22 05:06:00,59.9,58.5,30.19,SW,233,12.7,12.7,95,0.00,BKN,,0.00,0.0,WeatherDisplay:10.37,2013-09-22 04:06:00,
2013-09-22 05:11:00,59.9,58.5,30.19,SW,218,11.5,11.5,95,0.00,BKN,,0.00,0.0,WeatherDisplay:10.37,2013-09-22 04:11:00,
2013-09-22 05:16:00,60.0,58.6,30.19,SW,232,10.4,10.4,95,0.00,BKN,,0.00,0.0,WeatherDisplay:10.37,2013-09-22 04:16:00,
2013-09-22 05:21:00,59.9,58.5,30.19,South,184,15.0,15.0,95,0.00,BKN,,0.00,0.0,WeatherDisplay:10.37,2013-09-22 04:21:00,
2013-09-22 05:26:00,59.9,58.5,30.19,South,179,15.0,15.0,95,0.00,BKN,,0.00,0.0,WeatherDisplay:10.37,2013-09-22 04:26:00,
2013-09-22 05:31:00,59.9,58.5,30.20,WSW,248,10.4,10.4,95,0.00,BKN,,0.00,0.0,WeatherDisplay:10.37,2013-09-22 04:31:00,
2013-09-22 05:36:00,59.9,58.5,30.20,SSW,203,11.5,11.5,95,0.00,BKN,,0.00,0.0,WeatherDisplay:10.37,2013-09-22 04:36:00,
2013-09-22 05:41:00,59.9,58.5,30.19,SW,222,11.0,11.0,95,0.00,BKN,,0.00,0.0,WeatherDisplay:10.37,2013-09-22 04:41:00,
2013-09-22 05:46:00,60.0,58.6,30.19,West,259,16.1,16.1,95,0.00,BKN,,0.00,0.0,WeatherDisplay:10.37,2013-09-22 04:46:00,
2013-09-22 05:51:00,60.0,58.6,30.19,East,83,11.5,11.5,95,0.00,BKN,,0.00,0.0,WeatherDisplay:10.37,2013-09-22 04:51:00,
2013-09-22 05:56:00,60.0,58.6,30.20,WSW,248,13.8,13.8,95,0.00,BKN,,0.00,0.0,WeatherDisplay:10.37,2013-09-22 04:56:00,
2013-09-22 06:01:00,60.0,58.6,30.20,WSW,243,10.4,10.4,95,0.00,BKN,,0.00,0.0,WeatherDisplay:10.37,2013-09-22 05:01:00,
2013-09-22 06:06:00,60.0,58.6,30.20,SW,219,11.5,11.5,95,0.00,BKN,,0.00,0.0,WeatherDisplay:10.37,2013-09-22 05:06:00,
2013-09-22 06:11:00,60.0,58.6,30.20,WSW,243,12.0,12.0,95,0.00,BKN,,0.00,0.0,WeatherDisplay:10.37,2013-09-22 05:11:00,
2013-09-22 06:16:00,59.9,58.5,30.20,SW,227,15.0,15.0,95,0.00,BKN,,0.00,0.0,WeatherDisplay:10.37,2013-09-22 05:16:00,
2013-09-22 06:21:00,59.8,58.4,30.20,SW,225,11.5,11.5,95,0.00,BKN,,0.00,0.0,WeatherDisplay:10.37,2013-09-22 05:21:00,
2013-09-22 06:27:00,59.8,58.4,30.20,SW,231,18.4,18.4,95,0.00,BKN,,0.00,0.0,WeatherDisplay:10.37,2013-09-22 05:27:00,
2013-09-22 06:32:00,59.8,58.4,30.20,West,259,11.5,11.5,95,0.00,BKN,,0.00,0.0,WeatherDisplay:10.37,2013-09-22 05:32:00,
2013-09-22 06:37:00,59.8,58.4,30.20,South,188,11.5,11.5,95,0.00,BKN,,0.00,0.0,WeatherDisplay:10.37,2013-09-22 05:37:00,
2013-09-22 06:42:00,59.8,58.4,30.20,SE,136,8.1,8.1,95,0.00,BKN,,0.00,0.0,WeatherDisplay:10.37,2013-09-22 05:42:00,
2013-09-22 06:47:00,59.8,58.4,30.21,West,281,8.1,8.1,95,0.00,BKN,,0.00,0.0,WeatherDisplay:10.37,2013-09-22 05:47:00,
2013-09-22 06:52:00,59.9,58.5,30.21,SSW,204,3.5,3.5,95,0.00,BKN,,0.00,0.0,WeatherDisplay:10.37,2013-09-22 05:52:00,
2013-09-22 06:57:00,59.9,58.5,30.21,WSW,246,3.5,3.5,95,0.00,BKN,,0.00,0.0,WeatherDisplay:10.37,2013-09-22 05:57:00,
2013-09-22 07:02:00,59.9,58.5,30.21,South,170,2.3,2.3,95,0.00,-DZ,,0.00,0.0,WeatherDisplay:10.37,2013-09-22 06:02:00,
2013-09-22 07:07:00,59.9,58.5,30.22,SE,137,6.9,6.9,95,0.00,-DZ,,0.00,0.0,WeatherDisplay:10.37,2013-09-22 06:07:00,
2013-09-22 07:12:00,59.9,58.5,30.22,SE,141,5.8,5.8,95,0.00,-DZ,,0.00,0.0,WeatherDisplay:10.37,2013-09-22 06:12:00,
2013-09-22 07:17:00,59.9,58.5,30.22,South,183,4.6,4.6,95,0.00,-DZ,,0.00,0.0,WeatherDisplay:10.37,2013-09-22 06:17:00,
2013-09-22 07:22:00,59.9,58.8,30.22,SSW,208,6.0,6.0,96,0.00,-DZ,,0.00,0.0,WeatherDisplay:10.37,2013-09-22 06:22:00,
2013-09-22 07:36:00,59.9,58.8,30.23,SSE,162,5.0,5.0,96,0.00,-DZ,,0.00,0.0,WeatherDisplay:10.37,2013-09-22 06:36:00,
2013-09-22 07:41:00,60.0,58.9,30.23,SSW,197,4.6,4.6,96,0.00,-DZ,,0.00,0.0,WeatherDisplay:10.37,2013-09-22 06:41:00,
2013-09-22 07:46:00,60.0,58.9,30.23,SSW,201,3.5,3.5,96,0.00,-DZ,,0.00,0.0,WeatherDisplay:10.37,2013-09-22 06:46:00,
2013-09-22 07:51:00,60.0,58.9,30.23,SW,226,5.0,5.0,96,0.00,-DZ,,0.00,0.0,WeatherDisplay:10.37,2013-09-22 06:51:00,
2013-09-22 07:56:00,60.0,58.9,30.23,SW,219,4.6,4.6,96,0.00,-DZ,,0.00,0.0,WeatherDisplay:10.37,2013-09-22 06:56:00,
2013-09-22 08:01:00,60.0,58.9,30.23,WSW,250,9.2,9.2,96,0.00,-DZ,,0.00,0.0,WeatherDisplay:10.37,2013-09-22 07:01:00,
2013-09-22 08:06:00,60.1,59.0,30.23,WSW,239,8.1,8.1,96,0.00,-DZ,,0.00,0.0,WeatherDisplay:10.37,2013-09-22 07:06:00,
2013-09-22 08:11:00,60.2,59.1,30.23,SW,222,8.1,8.1,96,0.00,-DZ,,0.00,0.0,WeatherDisplay:10.37,2013-09-22 07:11:00,
2013-09-22 08:16:00,60.2,59.1,30.23,SW,226,8.1,8.1,96,0.00,-DZ,,0.00,0.0,WeatherDisplay:10.37,2013-09-22 07:16:00,
2013-09-22 08:21:00,60.3,59.2,30.24,SE,145,5.8,5.8,96,0.00,-DZ,,0.00,0.0,WeatherDisplay:10.37,2013-09-22 07:21:00,
2013-09-22 08:26:00,60.3,59.2,30.24,SSW,204,8.1,8.1,96,0.00,-DZ,,0.00,0.0,WeatherDisplay:10.37,2013-09-22 07:26:00,
2013-09-22 08:31:00,60.4,59.3,30.24,SSW,200,6.9,6.9,96,0.00,-DZ,,0.00,0.0,WeatherDisplay:10.37,2013-09-22 07:31:00,
2013-09-22 08:36:00,60.4,59.3,30.24,WSW,254,5.8,5.8,96,0.00,-DZ,,0.00,0.0,WeatherDisplay:10.37,2013-09-22 07:36:00,
2013-09-22 08:41:00,60.4,59.3,30.24,SSW,212,4.6,4.6,96,0.00,-DZ,,0.00,0.0,WeatherDisplay:10.37,2013-09-22 07:41:00,
2013-09-22 08:46:00,60.5,59.4,30.25,SE,134,1.2,1.2,96,0.00,-DZ,,0.00,0.0,WeatherDisplay:10.37,2013-09-22 07:46:00,
2013-09-22 08:51:00,60.4,59.3,30.24,NW,311,2.3,2.3,96,0.00,-DZ,,0.00,0.0,WeatherDisplay:10.37,2013-09-22 07:51:00,
2013-09-22 08:56:00,60.5,59.4,30.25,South,177,1.2,1.2,96,0.00,-DZ,,0.00,0.0,WeatherDisplay:10.37,2013-09-22 07:56:00,
2013-09-22 09:01:00,60.5,59.4,30.25,SSW,200,2.3,2.3,96,0.00,BKN,,0.00,0.0,WeatherDisplay:10.37,2013-09-22 08:01:00,
2013-09-22 09:06:00,60.5,59.4,30.25,SSW,205,5.8,5.8,96,0.00,BKN,,0.00,0.0,WeatherDisplay:10.37,2013-09-22 08:06:00,
2013-09-22 09:11:00,60.7,59.6,30.25,South,169,4.6,4.6,96,0.00,BKN,,0.00,0.0,WeatherDisplay:10.37,2013-09-22 08:11:00,
2013-09-22 09:16:00,60.8,59.7,30.25,SW,223,9.2,9.2,96,0.00,BKN,,0.00,0.0,WeatherDisplay:10.37,2013-09-22 08:16:00,
2013-09-22 09:21:00,60.8,59.7,30.25,NW,309,8.1,8.1,96,0.00,BKN,,0.00,0.0,WeatherDisplay:10.37,2013-09-22 08:21:00,
2013-09-22 09:26:00,60.9,59.8,30.25,WNW,291,6.9,6.9,96,0.00,BKN,,0.00,0.0,WeatherDisplay:10.37,2013-09-22 08:26:00,
2013-09-22 09:31:00,61.0,59.6,30.25,SW,215,9.2,9.2,95,0.00,BKN,,0.00,0.0,WeatherDisplay:10.37,2013-09-22 08:31:00,
2013-09-22 09:36:00,61.0,59.6,30.25,SSE,155,6.0,6.0,95,0.00,BKN,,0.00,0.0,WeatherDisplay:10.37,2013-09-22 08:36:00,
2013-09-22 09:42:00,60.9,59.5,30.25,SSE,155,7.0,7.0,95,0.00,BKN,,0.00,0.0,WeatherDisplay:10.37,2013-09-22 08:42:00,
2013-09-22 09:47:00,60.7,59.3,30.25,SE,135,6.9,6.9,95,0.00,BKN,,0.00,0.0,WeatherDisplay:10.37,2013-09-22 08:47:00,
2013-09-22 09:52:00,60.5,59.1,30.25,SE,146,8.0,8.0,95,0.00,BKN,,0.00,0.0,WeatherDisplay:10.37,2013-09-22 08:52:00,
2013-09-22 09:57:00,60.6,59.2,30.25,SSE,167,5.8,5.8,95,0.00,BKN,,0.00,0.0,WeatherDisplay:10.37,2013-09-22 08:57:00,
2013-09-22 10:02:00,60.7,59.3,30.25,SSE,156,8.0,8.0,95,0.00,BKN,,0.00,0.0,WeatherDisplay:10.37,2013-09-22 09:02:00,
2013-09-22 10:07:00,60.9,59.5,30.25,SSW,198,6.9,6.9,95,0.00,BKN,,0.00,0.0,WeatherDisplay:10.37,2013-09-22 09:07:00,
2013-09-22 10:12:00,61.1,59.7,30.25,South,186,6.9,6.9,95,0.00,BKN,,0.00,0.0,WeatherDisplay:10.37,2013-09-22 09:12:00,
2013-09-22 10:17:00,61.4,60.0,30.25,South,170,8.1,8.1,95,0.00,BKN,,0.00,0.0,WeatherDisplay:10.37,2013-09-22 09:17:00,
2013-09-22 10:22:00,61.5,60.1,30.25,SSE,167,9.2,9.2,95,0.00,BKN,,0.00,0.0,WeatherDisplay:10.37,2013-09-22 09:22:00,
2013-09-22 10:27:00,61.6,60.2,30.25,SE,139,9.0,9.0,95,0.00,BKN,,0.00,0.0,WeatherDisplay:10.37,2013-09-22 09:27:00,
2013-09-22 10:32:00,61.8,60.4,30.26,SW,218,5.8,5.8,95,0.00,BKN,,0.00,0.0,WeatherDisplay:10.37,2013-09-22 09:32:00,
2013-09-22 10:37:00,62.2,60.5,30.26,SW,230,8.1,8.1,94,0.00,BKN,,0.00,0.0,WeatherDisplay:10.37,2013-09-22 09:37:00,
2013-09-22 10:42:00,62.1,60.1,30.26,WSW,243,4.6,4.6,93,0.00,BKN,,0.00,0.0,WeatherDisplay:10.37,2013-09-22 09:42:00,
2013-09-22 10:47:00,62.3,60.2,30.26,SSW,193,6.9,6.9,93,0.00,BKN,,0.00,0.0,WeatherDisplay:10.37,2013-09-22 09:47:00,
2013-09-22 10:52:00,62.5,60.4,30.26,South,180,7.0,7.0,93,0.00,BKN,,0.00,0.0,WeatherDisplay:10.37,2013-09-22 09:52:00,
2013-09-22 10:57:00,62.6,60.5,30.26,SW,218,6.9,6.9,93,0.00,BKN,,0.00,0.0,WeatherDisplay:10.37,2013-09-22 09:57:00,
2013-09-22 11:02:00,62.8,60.4,30.26,South,179,6.0,6.0,92,0.00,BKN,,0.00,0.0,WeatherDisplay:10.37,2013-09-22 10:02:00,
2013-09-22 11:07:00,63.0,60.6,30.26,WSW,243,6.9,6.9,92,0.00,BKN,,0.00,0.0,WeatherDisplay:10.37,2013-09-22 10:07:00,
2013-09-22 11:12:00,63.1,60.1,30.26,SW,234,9.2,9.2,90,0.00,BKN,,0.00,0.0,WeatherDisplay:10.37,2013-09-22 10:12:00,
2013-09-22 11:17:00,63.4,60.4,30.26,SSW,204,6.9,6.9,90,0.00,BKN,,0.00,0.0,WeatherDisplay:10.37,2013-09-22 10:17:00,
2013-09-22 11:22:00,63.8,60.8,30.26,SSW,193,4.6,4.6,90,0.00,BKN,,0.00,0.0,WeatherDisplay:10.37,2013-09-22 10:22:00,
2013-09-22 11:27:00,64.4,61.1,30.26,SE,146,8.0,8.0,89,0.00,BKN,,0.00,0.0,WeatherDisplay:10.37,2013-09-22 10:27:00,
2013-09-22 11:32:00,64.5,60.9,30.26,SSW,204,8.1,8.1,88,0.00,BKN,,0.00,0.0,WeatherDisplay:10.37,2013-09-22 10:32:00,
2013-09-22 11:37:00,64.9,61.3,30.26,WSW,238,8.1,8.1,88,0.00,BKN,,0.00,0.0,WeatherDisplay:10.37,2013-09-22 10:37:00,
2013-09-22 11:42:00,65.3,61.3,30.26,SSE,167,8.1,8.1,87,0.00,BKN,,0.00,0.0,WeatherDisplay:10.37,2013-09-22 10:42:00,
2013-09-22 11:47:00,65.5,61.2,30.26,SW,226,8.1,8.1,86,0.00,BKN,,0.00,0.0,WeatherDisplay:10.37,2013-09-22 10:47:00,
2013-09-22 11:52:00,65.2,60.6,30.27,SE,136,6.0,6.0,85,0.00,BKN,,0.00,0.0,WeatherDisplay:10.37,2013-09-22 10:52:00,
2013-09-22 11:57:00,65.4,60.8,30.27,WSW,255,5.8,5.8,85,0.00,BKN,,0.00,0.0,WeatherDisplay:10.37,2013-09-22 10:57:00,
2013-09-22 12:02:00,65.6,61.0,30.27,SW,231,8.1,8.1,85,0.00,BKN,,0.00,0.0,WeatherDisplay:10.37,2013-09-22 11:02:00,
2013-09-22 12:07:00,66.0,61.7,30.27,SE,131,5.0,5.0,86,0.00,BKN,,0.00,0.0,WeatherDisplay:10.37,2013-09-22 11:07:00,
2013-09-22 12:12:00,65.9,60.9,30.27,South,170,6.9,6.9,84,0.00,BKN,,0.00,0.0,WeatherDisplay:10.37,2013-09-22 11:12:00,
2013-09-22 12:17:00,66.0,61.4,30.27,SSE,165,4.6,4.6,85,0.00,BKN,,0.00,0.0,WeatherDisplay:10.37,2013-09-22 11:17:00,
2013-09-22 12:22:00,66.2,61.2,30.27,SW,219,9.2,9.2,84,0.00,BKN,,0.00,0.0,WeatherDisplay:10.37,2013-09-22 11:22:00,
2013-09-22 12:27:00,66.4,61.1,30.27,WSW,249,11.5,11.5,83,0.00,BKN,,0.00,0.0,WeatherDisplay:10.37,2013-09-22 11:27:00,
2013-09-22 12:32:00,66.2,60.5,30.27,SSW,200,10.4,10.4,82,0.00,BKN,,0.00,0.0,WeatherDisplay:10.37,2013-09-22 11:32:00,
2013-09-22 12:37:00,66.2,60.5,30.27,SW,228,10.4,10.4,82,0.00,BKN,,0.00,0.0,WeatherDisplay:10.37,2013-09-22 11:37:00,
2013-09-22 12:42:00,66.4,60.7,30.27,SSW,204,6.0,6.0,82,0.00,BKN,,0.00,0.0,WeatherDisplay:10.37,2013-09-22 11:42:00,
2013-09-22 12:47:00,66.6,60.9,30.26,SSW,205,4.6,4.6,82,0.00,BKN,,0.00,0.0,WeatherDisplay:10.37,2013-09-22 11:47:00,
2013-09-22 12:52:00,66.8,61.1,30.26,South,191,6.9,6.9,82,0.00,BKN,,0.00,0.0,WeatherDisplay:10.37,2013-09-22 11:52:00,
2013-09-22 12:57:00,67.1,61.4,30.26,South,190,6.9,6.9,82,0.00,BKN,,0.00,0.0,WeatherDisplay:10.37,2013-09-22 11:57:00,
2013-09-22 13:02:00,67.1,61.1,30.26,SE,129,5.8,5.8,81,0.00,BKN,,0.00,0.0,WeatherDisplay:10.37,2013-09-22 12:02:00,
2013-09-22 13:07:00,67.2,61.5,30.26,ESE,110,3.5,3.5,82,0.00,BKN,,0.00,0.0,WeatherDisplay:10.37,2013-09-22 12:07:00,
2013-09-22 13:12:00,67.7,61.7,30.26,SSE,162,6.0,6.0,81,0.00,BKN,,0.00,0.0,WeatherDisplay:10.37,2013-09-22 12:12:00,
2013-09-22 13:17:00,68.0,61.6,30.26,SE,141,8.1,8.1,80,0.00,BKN,,0.00,0.0,WeatherDisplay:10.37,2013-09-22 12:17:00,
2013-09-22 13:22:00,67.6,60.9,30.26,SSE,158,8.1,8.1,79,0.00,BKN,,0.00,0.0,WeatherDisplay:10.37,2013-09-22 12:22:00,
2013-09-22 13:27:00,67.1,60.7,30.26,SE,124,6.9,6.9,80,0.00,BKN,,0.00,0.0,WeatherDisplay:10.37,2013-09-22 12:27:00,
2013-09-22 13:32:00,67.6,61.9,30.26,SW,221,7.0,7.0,82,0.00,BKN,,0.00,0.0,WeatherDisplay:10.37,2013-09-22 12:32:00,
2013-09-22 13:37:00,68.0,60.9,30.26,West,262,9.2,9.2,78,0.00,BKN,,0.00,0.0,WeatherDisplay:10.37,2013-09-22 12:37:00,
2013-09-22 13:42:00,68.0,60.5,30.26,SE,131,10.4,10.4,77,0.00,BKN,,0.00,0.0,WeatherDisplay:10.37,2013-09-22 12:42:00,
2013-09-22 13:47:00,67.7,61.0,30.25,SE,131,9.2,9.2,79,0.00,BKN,,0.00,0.0,WeatherDisplay:10.37,2013-09-22 12:47:00,
2013-09-22 13:52:00,67.6,61.2,30.25,SE,143,8.1,8.1,80,0.00,BKN,,0.00,0.0,WeatherDisplay:10.37,2013-09-22 12:52:00,
2013-09-22 13:57:00,67.6,61.2,30.25,SSE,152,9.2,9.2,80,0.00,BKN,,0.00,0.0,WeatherDisplay:10.37,2013-09-22 12:57:00,
2013-09-22 14:02:00,67.8,60.7,30.25,SSE,168,9.2,9.2,78,0.00,BKN,,0.00,0.0,WeatherDisplay:10.37,2013-09-22 13:02:00,
2013-09-22 14:07:00,68.4,61.6,30.25,SSE,155,9.2,9.2,79,0.00,BKN,,0.00,0.0,WeatherDisplay:10.37,2013-09-22 13:07:00,
2013-09-22 14:12:00,68.7,61.9,30.25,South,187,8.0,8.0,79,0.00,BKN,,0.00,0.0,WeatherDisplay:10.37,2013-09-22 13:12:00,
2013-09-22 14:17:00,69.0,61.1,30.25,SSE,150,8.1,8.1,76,0.00,BKN,,0.00,0.0,WeatherDisplay:10.37,2013-09-22 13:17:00,
2013-09-22 14:22:00,69.3,61.0,30.24,South,176,11.5,11.5,75,0.00,BKN,,0.00,0.0,WeatherDisplay:10.37,2013-09-22 13:22:00,
2013-09-22 14:27:00,69.6,61.3,30.24,SSE,153,8.1,8.1,75,0.00,BKN,,0.00,0.0,WeatherDisplay:10.37,2013-09-22 13:27:00,
2013-09-22 14:32:00,69.9,61.6,30.24,South,172,11.5,11.5,75,0.00,BKN,,0.00,0.0,WeatherDisplay:10.37,2013-09-22 13:32:00,
2013-09-22 14:37:00,69.9,61.2,30.24,SE,132,9.0,9.0,74,0.00,BKN,,0.00,0.0,WeatherDisplay:10.37,2013-09-22 13:37:00,
2013-09-22 14:42:00,70.1,62.2,30.24,SSE,161,10.4,10.4,76,0.00,BKN,,0.00,0.0,WeatherDisplay:10.37,2013-09-22 13:42:00,
2013-09-22 14:47:00,70.3,61.6,30.24,SSE,167,10.4,10.4,74,0.00,BKN,,0.00,0.0,WeatherDisplay:10.37,2013-09-22 13:47:00,
2013-09-22 14:52:00,69.9,61.2,30.24,SE,136,11.5,11.5,74,0.00,BKN,,0.00,0.0,WeatherDisplay:10.37,2013-09-22 13:52:00,
2013-09-22 14:57:00,69.2,60.9,30.24,SSE,148,9.0,9.0,75,0.00,BKN,,0.00,0.0,WeatherDisplay:10.37,2013-09-22 13:57:00,
2013-09-22 15:02:00,68.9,61.0,30.24,SW,218,9.2,9.2,76,0.00,SCT,,0.00,0.0,WeatherDisplay:10.37,2013-09-22 14:02:00,
2013-09-22 15:07:00,68.9,61.4,30.24,SSE,160,8.1,8.1,77,0.00,SCT,,0.00,0.0,WeatherDisplay:10.37,2013-09-22 14:07:00,
2013-09-22 15:12:00,69.6,61.7,30.24,SW,221,9.2,9.2,76,0.00,SCT,,0.00,0.0,WeatherDisplay:10.37,2013-09-22 14:12:00,
2013-09-22 15:17:00,70.5,62.2,30.24,South,186,7.0,7.0,75,0.00,SCT,,0.00,0.0,WeatherDisplay:10.37,2013-09-22 14:17:00,
2013-09-22 15:22:00,71.1,62.4,30.23,SSE,152,11.5,11.5,74,0.00,SCT,,0.00,0.0,WeatherDisplay:10.37,2013-09-22 14:22:00,
2013-09-22 15:27:00,71.2,62.1,30.23,SE,134,10.4,10.4,73,0.00,SCT,,0.00,0.0,WeatherDisplay:10.37,2013-09-22 14:27:00,
2013-09-22 15:32:00,70.7,61.6,30.23,SSE,158,11.5,11.5,73,0.00,SCT,,0.00,0.0,WeatherDisplay:10.37,2013-09-22 14:32:00,
2013-09-22 15:37:00,70.8,62.1,30.23,SSW,211,11.5,11.5,74,0.00,SCT,,0.00,0.0,WeatherDisplay:10.37,2013-09-22 14:37:00,
2013-09-22 15:42:00,71.2,62.1,30.23,SSE,156,10.0,10.0,73,0.00,SCT,,0.00,0.0,WeatherDisplay:10.37,2013-09-22 14:42:00,
2013-09-22 15:47:00,71.4,62.7,30.22,South,181,11.5,11.5,74,0.00,SCT,,0.00,0.0,WeatherDisplay:10.37,2013-09-22 14:47:00,
2013-09-22 15:52:00,71.3,62.2,30.22,SSE,162,11.5,11.5,73,0.00,SCT,,0.00,0.0,WeatherDisplay:10.37,2013-09-22 14:52:00,
2013-09-22 15:57:00,71.0,62.3,30.22,SE,140,10.4,10.4,74,0.00,SCT,,0.00,0.0,WeatherDisplay:10.37,2013-09-22 14:57:00,
2013-09-22 16:02:00,70.4,62.1,30.22,South,174,9.2,9.2,75,0.00,SCT,,0.00,0.0,WeatherDisplay:10.37,2013-09-22 15:02:00,
2013-09-22 16:07:00,70.1,61.4,30.22,SSE,160,10.4,10.4,74,0.00,SCT,,0.00,0.0,WeatherDisplay:10.37,2013-09-22 15:07:00,
2013-09-22 16:12:00,69.8,61.5,30.22,ESE,115,10.4,10.4,75,0.00,SCT,,0.00,0.0,WeatherDisplay:10.37,2013-09-22 15:12:00,
2013-09-22 16:17:00,69.5,62.0,30.22,SSE,165,8.1,8.1,77,0.00,SCT,,0.00,0.0,WeatherDisplay:10.37,2013-09-22 15:17:00,
2013-09-22 16:22:00,69.4,62.2,30.22,SSE,148,8.1,8.1,78,0.00,SCT,,0.00,0.0,WeatherDisplay:10.37,2013-09-22 15:22:00,
2013-09-22 16:27:00,69.5,62.0,30.22,SE,128,10.4,10.4,77,0.00,SCT,,0.00,0.0,WeatherDisplay:10.37,2013-09-22 15:27:00,
2013-09-22 16:32:00,69.6,62.1,30.22,SSE,165,10.4,10.4,77,0.00,SCT,,0.00,0.0,WeatherDisplay:10.37,2013-09-22 15:32:00,
2013-09-22 16:37:00,69.5,62.3,30.22,SE,142,10.4,10.4,78,0.00,SCT,,0.00,0.0,WeatherDisplay:10.37,2013-09-22 15:37:00,
2013-09-22 16:42:00,69.6,62.4,30.22,SSE,150,9.2,9.2,78,0.00,SCT,,0.00,0.0,WeatherDisplay:10.37,2013-09-22 15:42:00,
2013-09-22 16:48:00,69.5,62.3,30.22,ESE,117,9.2,9.2,78,0.00,SCT,,0.00,0.0,WeatherDisplay:10.37,2013-09-22 15:48:00,
2013-09-22 16:53:00,69.4,62.2,30.22,SSE,149,8.1,8.1,78,0.00,SCT,,0.00,0.0,WeatherDisplay:10.37,2013-09-22 15:53:00,
2013-09-22 16:58:00,69.4,61.9,30.22,SE,141,9.2,9.2,77,0.00,SCT,,0.00,0.0,WeatherDisplay:10.37,2013-09-22 15:58:00,
2013-09-22 17:03:00,70.2,62.3,30.22,SSE,152,11.0,11.0,76,0.00,SCT,,0.00,0.0,WeatherDisplay:10.37,2013-09-22 16:03:00,
2013-09-22 17:08:00,70.1,61.8,30.22,SE,137,13.8,13.8,75,0.00,SCT,,0.00,0.0,WeatherDisplay:10.37,2013-09-22 16:08:00,
2013-09-22 17:13:00,69.9,62.0,30.22,SSE,160,9.2,9.2,76,0.00,SCT,,0.00,0.0,WeatherDisplay:10.37,2013-09-22 16:13:00,
2013-09-22 17:18:00,69.6,61.3,30.22,SSE,150,10.4,10.4,75,0.00,SCT,,0.00,0.0,WeatherDisplay:10.37,2013-09-22 16:18:00,
2013-09-22 17:23:00,69.0,61.1,30.22,SSE,165,6.9,6.9,76,0.00,SCT,,0.00,0.0,WeatherDisplay:10.37,2013-09-22 16:23:00,
2013-09-22 17:28:00,68.5,61.4,30.22,SSE,148,8.1,8.1,78,0.00,SCT,,0.00,0.0,WeatherDisplay:10.37,2013-09-22 16:28:00,
2013-09-22 17:33:00,68.2,61.1,30.21,SSE,162,8.1,8.1,78,0.00,SCT,,0.00,0.0,WeatherDisplay:10.37,2013-09-22 16:33:00,
2013-09-22 17:38:00,67.7,61.0,30.21,SSE,153,8.1,8.1,79,0.00,SCT,,0.00,0.0,WeatherDisplay:10.37,2013-09-22 16:38:00,
2013-09-22 17:44:00,67.4,61.0,30.21,SSE,153,6.9,6.9,80,0.00,SCT,,0.00,0.0,WeatherDisplay:10.37,2013-09-22 16:44:00,
2013-09-22 17:49:00,67.2,60.8,30.21,SSE,158,9.2,9.2,80,0.00,SCT,,0.00,0.0,WeatherDisplay:10.37,2013-09-22 16:49:00,
2013-09-22 17:54:00,67.4,61.4,30.21,SSE,160,5.0,5.0,81,0.00,SCT,,0.00,0.0,WeatherDisplay:10.37,2013-09-22 16:54:00,
2013-09-22 17:59:00,67.9,61.5,30.21,SSE,167,6.9,6.9,80,0.00,SCT,,0.00,0.0,WeatherDisplay:10.37,2013-09-22 16:59:00,
2013-09-22 18:04:00,68.1,61.7,30.21,SSE,150,6.0,6.0,80,0.00,SCT,,0.00,0.0,WeatherDisplay:10.37,2013-09-22 17:04:00,
2013-09-22 18:09:00,67.9,61.5,30.21,SE,146,6.9,6.9,80,0.00,SCT,,0.00,0.0,WeatherDisplay:10.37,2013-09-22 17:09:00,
2013-09-22 18:14:00,67.8,61.8,30.21,SE,135,3.5,3.5,81,0.00,SCT,,0.00,0.0,WeatherDisplay:10.37,2013-09-22 17:14:00,
2013-09-22 18:19:00,67.7,61.7,30.21,SSE,148,3.5,3.5,81,0.00,SCT,,0.00,0.0,WeatherDisplay:10.37,2013-09-22 17:19:00,
2013-09-22 18:24:00,67.5,61.8,30.21,SSE,155,3.5,3.5,82,0.00,SCT,,0.00,0.0,WeatherDisplay:10.37,2013-09-22 17:24:00,
2013-09-22 18:29:00,67.4,61.7,30.21,SSE,152,4.0,4.0,82,0.00,SCT,,0.00,0.0,WeatherDisplay:10.37,2013-09-22 17:29:00,
2013-09-22 18:34:00,67.3,61.6,30.21,SE,145,5.0,5.0,82,0.00,SCT,,0.00,0.0,WeatherDisplay:10.37,2013-09-22 17:34:00,
2013-09-22 18:39:00,67.1,61.1,30.21,SSE,149,8.1,8.1,81,0.00,SCT,,0.00,0.0,WeatherDisplay:10.37,2013-09-22 17:39:00,
2013-09-22 18:44:00,67.1,61.1,30.21,SSE,147,6.9,6.9,81,0.00,SCT,,0.00,0.0,WeatherDisplay:10.37,2013-09-22 17:44:00,
2013-09-22 18:49:00,66.9,61.2,30.21,SSE,165,3.5,3.5,82,0.00,SCT,,0.00,0.0,WeatherDisplay:10.37,2013-09-22 17:49:00,
2013-09-22 18:54:00,66.6,60.9,30.21,SSE,151,5.8,5.8,82,0.00,SCT,,0.00,0.0,WeatherDisplay:10.37,2013-09-22 17:54:00,
2013-09-22 18:59:00,66.2,60.9,30.21,South,171,8.1,8.1,83,0.00,SCT,,0.00,0.0,WeatherDisplay:10.37,2013-09-22 17:59:00,
2013-09-22 19:04:00,66.3,61.0,30.21,SSE,153,5.8,5.8,83,0.00,BKN,,0.00,0.0,WeatherDisplay:10.37,2013-09-22 18:04:00,
2013-09-22 19:09:00,66.2,60.5,30.21,SSE,155,5.8,5.8,82,0.00,BKN,,0.00,0.0,WeatherDisplay:10.37,2013-09-22 18:09:00,
2013-09-22 19:14:00,65.8,60.5,30.21,SSE,157,5.8,5.8,83,0.00,BKN,,0.00,0.0,WeatherDisplay:10.37,2013-09-22 18:14:00,
2013-09-22 19:19:00,65.4,60.1,30.21,SSE,167,4.6,4.6,83,0.00,BKN,,0.00,0.0,WeatherDisplay:10.37,2013-09-22 18:19:00,
2013-09-22 19:24:00,64.9,59.9,30.20,SSE,163,4.6,4.6,84,0.00,BKN,,0.00,0.0,WeatherDisplay:10.37,2013-09-22 18:24:00,
2013-09-22 19:29:00,64.4,59.5,30.20,SSE,150,4.6,4.6,84,0.00,BKN,,0.00,0.0,WeatherDisplay:10.37,2013-09-22 18:29:00,
2013-09-22 19:34:00,63.9,59.3,30.21,SSE,162,4.6,4.6,85,0.00,BKN,,0.00,0.0,WeatherDisplay:10.37,2013-09-22 18:34:00,
2013-09-22 19:39:00,63.4,59.1,30.21,SE,134,5.0,5.0,86,0.00,BKN,,0.00,0.0,WeatherDisplay:10.37,2013-09-22 18:39:00,
2013-09-22 19:44:00,63.1,59.2,30.21,SE,136,6.0,6.0,87,0.00,BKN,,0.00,0.0,WeatherDisplay:10.37,2013-09-22 18:44:00,
2013-09-22 19:49:00,63.1,59.2,30.21,South,174,4.6,4.6,87,0.00,BKN,,0.00,0.0,WeatherDisplay:10.37,2013-09-22 18:49:00,
2013-09-22 19:54:00,63.0,59.1,30.21,SSE,163,6.9,6.9,87,0.00,BKN,,0.00,0.0,WeatherDisplay:10.37,2013-09-22 18:54:00,
2013-09-22 19:59:00,62.8,59.2,30.21,SE,146,9.2,9.2,88,0.00,BKN,,0.00,0.0,WeatherDisplay:10.37,2013-09-22 18:59:00,
2013-09-22 20:04:00,62.7,59.1,30.22,SSE,150,10.4,10.4,88,0.00,BKN,,0.00,0.0,WeatherDisplay:10.37,2013-09-22 19:04:00,
2013-09-22 20:09:00,62.7,59.1,30.22,SSE,150,8.0,8.0,88,0.00,BKN,,0.00,0.0,WeatherDisplay:10.37,2013-09-22 19:09:00,
2013-09-22 20:14:00,62.8,59.2,30.22,South,181,8.1,8.1,88,0.00,BKN,,0.00,0.0,WeatherDisplay:10.37,2013-09-22 19:14:00,
2013-09-22 20:19:00,62.8,59.2,30.22,SSE,156,4.6,4.6,88,0.00,BKN,,0.00,0.0,WeatherDisplay:10.37,2013-09-22 19:19:00,
2013-09-22 20:24:00,62.6,59.0,30.22,SE,128,5.8,5.8,88,0.00,BKN,,0.00,0.0,WeatherDisplay:10.37,2013-09-22 19:24:00,
2013-09-22 20:29:00,62.3,58.7,30.22,SE,145,3.5,3.5,88,0.00,BKN,,0.00,0.0,WeatherDisplay:10.37,2013-09-22 19:29:00,
2013-09-22 20:34:00,62.1,58.8,30.22,South,176,4.0,4.0,89,0.00,BKN,,0.00,0.0,WeatherDisplay:10.37,2013-09-22 19:34:00,
2013-09-22 20:39:00,62.1,58.8,30.22,SE,146,4.0,4.0,89,0.00,BKN,,0.00,0.0,WeatherDisplay:10.37,2013-09-22 19:39:00,
2013-09-22 20:44:00,62.0,58.7,30.22,SSE,153,2.3,2.3,89,0.00,BKN,,0.00,0.0,WeatherDisplay:10.37,2013-09-22 19:44:00,
2013-09-22 20:49:00,62.0,58.7,30.22,SE,139,1.2,1.2,89,0.00,BKN,,0.00,0.0,WeatherDisplay:10.37,2013-09-22 19:49:00,
2013-09-22 20:54:00,62.0,58.7,30.22,SSE,155,3.5,3.5,89,0.00,BKN,,0.00,0.0,WeatherDisplay:10.37,2013-09-22 19:54:00,
2013-09-22 20:59:00,61.7,58.4,30.21,SE,146,3.5,3.5,89,0.00,BKN,,0.00,0.0,WeatherDisplay:10.37,2013-09-22 19:59:00,
2013-09-22 21:04:00,61.4,58.1,30.21,SE,131,2.0,2.0,89,0.00,BKN,,0.00,0.0,WeatherDisplay:10.37,2013-09-22 20:04:00,
2013-09-22 21:09:00,61.4,58.4,30.21,SE,127,1.2,1.2,90,0.00,BKN,,0.00,0.0,WeatherDisplay:10.37,2013-09-22 20:09:00,
2013-09-22 21:14:00,61.6,58.6,30.21,East,83,2.3,2.3,90,0.00,BKN,,0.00,0.0,WeatherDisplay:10.37,2013-09-22 20:14:00,
2013-09-22 21:19:00,61.8,58.5,30.21,SSW,206,3.5,3.5,89,0.00,BKN,,0.00,0.0,WeatherDisplay:10.37,2013-09-22 20:19:00,
2013-09-22 21:24:00,61.5,58.2,30.21,SE,127,3.5,3.5,89,0.00,BKN,,0.00,0.0,WeatherDisplay:10.37,2013-09-22 20:24:00,
2013-09-22 21:29:00,61.1,57.8,30.21,ESE,108,2.3,2.3,89,0.00,BKN,,0.00,0.0,WeatherDisplay:10.37,2013-09-22 20:29:00,
2013-09-22 21:34:00,60.9,57.9,30.21,ESE,121,1.2,1.2,90,0.00,BKN,,0.00,0.0,WeatherDisplay:10.37,2013-09-22 20:34:00,
2013-09-22 21:39:00,60.8,57.8,30.21,SE,134,3.5,3.5,90,0.00,BKN,,0.00,0.0,WeatherDisplay:10.37,2013-09-22 20:39:00,
2013-09-22 21:44:00,60.9,58.3,30.21,SE,145,5.0,5.0,91,0.00,BKN,,0.00,0.0,WeatherDisplay:10.37,2013-09-22 20:44:00,
2013-09-22 21:49:00,61.3,58.7,30.21,SSE,155,9.2,9.2,91,0.00,BKN,,0.00,0.0,WeatherDisplay:10.37,2013-09-22 20:49:00,
2013-09-22 21:54:00,61.7,59.0,30.21,SSE,162,5.8,5.8,91,0.00,BKN,,0.00,0.0,WeatherDisplay:10.37,2013-09-22 20:54:00,
2013-09-22 22:00:00,61.8,58.8,30.22,SE,131,4.6,4.6,90,0.00,BKN,,0.00,0.0,WeatherDisplay:10.37,2013-09-22 21:00:00,
2013-09-22 22:05:00,61.9,58.9,30.21,ESE,121,5.8,5.8,90,0.00,BKN,,0.00,0.0,WeatherDisplay:10.37,2013-09-22 21:05:00,
2013-09-22 22:10:00,62.0,59.0,30.21,ESE,120,4.6,4.6,90,0.00,BKN,,0.00,0.0,WeatherDisplay:10.37,2013-09-22 21:10:00,
2013-09-22 22:15:00,62.0,59.0,30.21,East,98,4.6,4.6,90,0.00,BKN,,0.00,0.0,WeatherDisplay:10.37,2013-09-22 21:15:00,
2013-09-22 22:20:00,61.9,58.9,30.21,East,101,6.9,6.9,90,0.00,BKN,,0.00,0.0,WeatherDisplay:10.37,2013-09-22 21:20:00,
2013-09-22 22:25:00,61.9,59.2,30.21,East,95,5.8,5.8,91,0.00,BKN,,0.00,0.0,WeatherDisplay:10.37,2013-09-22 21:25:00,
2013-09-22 22:30:00,61.8,59.1,30.21,ESE,108,4.6,4.6,91,0.00,BKN,,0.00,0.0,WeatherDisplay:10.37,2013-09-22 21:30:00,
2013-09-22 22:35:00,61.9,59.2,30.21,ESE,120,5.8,5.8,91,0.00,BKN,,0.00,0.0,WeatherDisplay:10.37,2013-09-22 21:35:00,
2013-09-22 22:40:00,61.9,59.2,30.21,SE,131,3.5,3.5,91,0.00,BKN,,0.00,0.0,WeatherDisplay:10.37,2013-09-22 21:40:00,
2013-09-22 22:45:00,61.9,59.2,30.21,ESE,120,6.9,6.9,91,0.00,BKN,,0.00,0.0,WeatherDisplay:10.37,2013-09-22 21:45:00,
2013-09-22 22:50:00,62.0,59.3,30.21,ESE,104,6.9,6.9,91,0.00,BKN,,0.00,0.0,WeatherDisplay:10.37,2013-09-22 21:50:00,
2013-09-22 22:55:00,62.0,59.3,30.21,SE,129,5.8,5.8,91,0.00,BKN,,0.00,0.0,WeatherDisplay:10.37,2013-09-22 21:55:00,
2013-09-22 23:00:00,61.9,59.2,30.21,ESE,107,6.9,6.9,91,0.00,BKN,,0.00,0.0,WeatherDisplay:10.37,2013-09-22 22:00:00,
2013-09-22 23:05:00,61.9,58.9,30.21,ESE,116,5.8,5.8,90,0.00,BKN,,0.00,0.0,WeatherDisplay:10.37,2013-09-22 22:05:00,
2013-09-22 23:10:00,61.9,59.2,30.21,SE,128,9.2,9.2,91,0.00,BKN,,0.00,0.0,WeatherDisplay:10.37,2013-09-22 22:10:00,
2013-09-22 23:15:00,61.9,59.2,30.20,SE,127,9.2,9.2,91,0.00,BKN,,0.00,0.0,WeatherDisplay:10.37,2013-09-22 22:15:00,
2013-09-22 23:20:00,61.9,58.9,30.20,ESE,108,10.4,10.4,90,0.00,BKN,,0.00,0.0,WeatherDisplay:10.37,2013-09-22 22:20:00,
2013-09-22 23:25:00,61.8,59.1,30.20,ENE,75,9.2,9.2,91,0.00,BKN,,0.00,0.0,WeatherDisplay:10.37,2013-09-22 22:25:00,
2013-09-22 23:30:00,61.7,59.0,30.20,SE,132,11.5,11.5,91,0.00,BKN,,0.00,0.0,WeatherDisplay:10.37,2013-09-22 22:30:00,
2013-09-22 23:35:00,61.7,59.0,30.20,ESE,110,6.9,6.9,91,0.00,BKN,,0.00,0.0,WeatherDisplay:10.37,2013-09-22 22:35:00,
2013-09-22 23:40:00,61.6,58.9,30.20,ESE,111,8.1,8.1,91,0.00,BKN,,0.00,0.0,WeatherDisplay:10.37,2013-09-22 22:40:00,
2013-09-22 23:45:00,61.6,58.9,30.20,ESE,120,11.5,11.5,91,0.00,BKN,,0.00,0.0,WeatherDisplay:10.37,2013-09-22 22:45:00,
2013-09-22 23:50:00,61.6,58.9,30.20,ESE,115,8.1,8.1,91,0.00,BKN,,0.00,0.0,WeatherDisplay:10.37,2013-09-22 22:50:00,
2013-09-22 23:55:00,61.6,59.3,30.20,SE,136,6.9,6.9,92,0.00,BKN,,0.00,0.0,WeatherDisplay:10.37,2013-09-22 22:55:00,